Theta_e
328 329 328 327 326 326 325 325 325 326 327 326 325 324 324 324 323 323 322 322 322 321 322 323 322 322 320 320 322 322 320 317 318 320 321 321 320 319 316 314 314 316 318 320 322 323 323 325 326 327 327 325 321 320 320 321 322 322 321 320 318 317 317 316 315 314 313 312 311 309 307 307 308 308 308 308 307 307 306 306 306 306 306 307 307
328 329 327 326 326 325 324 324 325 326 326 325 324 324 324 323 323 323 322 322 322 321 322 322 321 321 319 319 322 321 318 317 317 317 319 319 319 319 318 316 314 315 316 318 320 322 323 324 325 326 327 324 320 319 319 320 321 321 320 319 318 316 315 315 315 314 313 311 311 309 307 307 309 308 308 308 307 306 307 306 306 306 306 307 306
327 328 327 326 326 325 324 323 324 324 323 323 323 323 324 324 323 323 322 322 321 321 321 321 320 320 319 319 320 319 317 317 316 316 316 317 317 317 317 316 314 315 316 317 317 318 320 323 324 325 326 324 320 319 319 319 320 319 319 319 318 316 315 314 314 314 314 313 311 310 307 307 309 309 308 308 307 306 307 307 306 306 306 306 306
327 327 327 327 326 324 322 322 322 323 322 323 323 323 323 323 323 322 322 321 320 320 320 320 319 319 318 318 318 318 317 316 315 315 315 315 315 315 316 316 315 314 315 315 315 314 316 320 323 325 326 323 320 319 318 318 319 319 319 318 317 317 315 313 313 314 314 313 311 310 309 308 308 308 308 307 306 306 306 306 306 306 306 306 305
326 326 327 327 325 323 322 321 322 322 323 323 322 322 323 323 322 322 321 319 318 317 316 315 316 317 318 318 317 317 317 315 314 313 314 314 315 314 315 316 315 315 315 315 314 314 314 316 321 326 326 324 321 319 319 318 319 320 319 318 317 316 316 314 313 313 313 313 312 310 310 309 308 307 307 307 307 306 306 306 307 307 306 306 305
326 326 326 325 323 322 321 320 321 322 322 322 322 322 322 322 321 321 319 316 314 313 312 312 313 314 315 316 317 317 316 314 313 312 312 313 313 313 313 315 316 315 315 314 314 314 314 315 319 324 326 325 322 321 320 320 320 320 320 318 316 315 315 314 313 313 313 314 313 310 308 309 309 307 307 308 308 308 307 307 307 307 306 305 305
325 325 324 323 322 321 321 320 321 322 322 322 322 322 321 321 320 319 317 315 313 312 311 311 311 311 312 313 314 315 315 314 312 312 312 312 312 312 312 313 314 315 315 315 314 314 314 314 315 319 322 325 324 323 322 321 321 321 321 320 318 316 315 314 313 313 313 314 313 311 310 309 309 309 307 307 308 309 308 308 308 307 306 305 305
323 323 322 322 320 320 320 320 320 321 320 320 321 320 320 319 318 317 317 316 314 313 312 312 312 312 312 312 312 313 313 312 311 312 312 312 312 312 313 312 313 314 315 315 315 315 315 315 314 315 317 319 320 321 321 320 320 319 319 319 319 319 317 315 314 313 313 313 312 312 311 310 310 310 308 307 308 309 309 309 309 308 306 305 305
321 321 321 320 320 319 319 319 319 319 319 319 319 319 319 318 317 317 316 315 315 315 314 314 314 315 315 314 314 313 312 311 311 312 312 313 313 313 313 313 313 314 315 316 316 316 315 315 314 314 314 314 315 316 316 316 315 315 315 315 315 316 317 316 315 314 313 313 313 312 312 311 310 310 309 308 309 310 309 309 310 309 307 305 304
319 319 319 319 319 319 319 319 318 319 319 319 319 319 319 318 318 317 315 314 315 316 316 316 316 315 315 315 315 314 313 312 312 312 312 313 313 313 313 314 313 314 315 315 316 316 316 315 315 314 314 314 314 314 314 314 314 314 314 314 313 313 314 315 315 315 314 314 313 312 312 312 312 311 310 310 310 311 310 309 310 310 307 306 305
317 317 318 318 318 318 318 319 319 319 318 318 319 318 318 319 318 318 317 316 317 317 317 316 316 316 315 315 315 315 314 314 313 312 312 312 312 313 313 314 314 314 314 315 315 316 316 316 315 315 315 314 314 314 314 314 314 314 314 314 314 313 313 313 314 314 313 313 314 313 312 313 313 311 311 311 310 310 309 309 310 309 307 308 307
313 313 314 316 316 316 317 317 318 318 318 318 318 318 318 318 318 318 318 318 319 319 319 318 318 318 317 317 317 317 317 317 316 314 314 313 312 313 313 314 314 314 314 314 314 315 315 315 315 315 315 315 314 314 314 314 313 314 314 314 314 314 313 314 314 313 312 312 314 313 311 313 314 311 310 310 309 308 309 309 310 309 308 309 309
309 309 310 312 313 314 315 316 316 315 315 316 316 316 316 316 315 315 315 315 317 317 318 319 319 320 319 318 318 318 318 318 318 317 316 315 314 313 313 313 313 313 314 314 314 314 314 314 314 314 314 314 314 314 314 314 313 313 313 313 313 313 313 313 314 314 313 312 313 313 312 312 313 312 311 310 309 308 309 310 310 309 309 310 310
304 304 306 308 308 309 311 312 312 311 311 312 312 312 311 311 311 311 310 311 312 312 313 314 316 317 318 317 317 317 317 317 318 319 319 318 317 316 315 314 314 314 313 313 314 313 313 313 313 313 314 314 314 314 314 314 313 313 313 313 313 313 313 313 313 314 314 313 313 314 314 313 313 313 312 311 310 309 310 310 309 309 310 310 309
300 300 301 302 303 303 304 305 306 306 306 307 307 307 306 305 306 306 307 307 307 307 307 308 308 310 311 312 313 313 312 312 315 318 318 319 319 319 319 318 318 318 317 317 316 315 315 314 314 314 314 314 314 314 314 314 313 313 313 314 314 314 314 314 314 314 314 314 314 314 314 314 313 312 312 312 311 310 309 309 309 309 309 308 307
299 299 299 299 300 300 300 301 301 302 302 303 303 302 302 302 302 303 304 305 305 304 304 304 304 304 305 306 307 306 306 307 310 312 314 315 317 317 318 318 319 319 319 319 320 319 319 319 318 317 317 316 316 316 316 315 315 314 314 314 314 314 314 314 314 314 314 314 314 314 314 314 314 313 313 313 312 310 309 309 308 307 306 306 304
298 298 298 298 298 299 299 299 299 299 300 300 300 299 299 300 300 300 301 301 301 301 301 301 301 302 302 302 302 302 302 303 304 306 307 309 310 311 312 313 314 314 314 315 316 317 318 319 320 320 320 319 319 318 318 318 317 317 316 315 315 315 314 314 314 314 314 314 314 314 314 314 314 314 314 314 313 312 309 307 306 305 305 305 305
298 298 298 298 298 298 298 298 298 298 298 298 298 298 298 298 298 299 299 299 299 299 299 299 299 300 300 300 300 300 300 301 301 302 303 304 304 305 306 307 307 308 309 310 311 312 313 315 316 317 318 319 319 319 319 318 317 317 318 317 317 316 316 315 315 314 314 314 314 314 314 314 314 313 314 314 314 314 311 309 308 307 305 305 306
297 297 297 297 297 297 297 297 298 298 298 297 297 297 297 297 297 297 298 298 298 298 298 298 298 298 298 298 298 299 299 299 299 300 300 301 301 301 302 302 303 303 304 305 306 307 309 310 311 312 314 315 316 317 318 318 317 317 317 318 318 318 317 317 316 315 314 314 313 313 313 313 313 313 313 313 313 312 312 310 309 307 306 306 306
297 297 297 297 297 297 297 297 297 297 297 297 297 297 297 297 297 297 297 297 297 297 297 297 297 297 297 297 297 298 298 298 298 298 299 299 299 299 300 300 300 301 301 301 302 303 304 304 306 307 309 310 312 313 316 317 318 318 317 318 318 318 318 317 317 316 315 314 314 314 313 312 312 312 312 312 311 310 310 309 307 307 306 306 304
296 296 296 296 296 296 296 296 296 296 296 296 296 296 296 296 296 296 296 296 296 296 296 296 296 296 296 296 296 296 296 297 297 297 298 298 298 298 298 299 299 299 299 300 302 303 303 302 302 303 304 305 307 309 312 315 317 317 317 318 318 317 317 317 316 316 315 315 314 313 313 312 312 311 311 310 310 309 308 306 306 306 305 304 302
295 295 295 295 295 295 295 295 295 295 295 295 295 295 295 295 295 295 295 295 295 295 295 295 296 296 295 295 295 295 295 296 296 296 297 297 297 298 298 298 298 298 299 301 302 304 304 303 302 301 301 302 304 306 309 312 314 316 317 318 318 318 317 316 316 315 314 314 313 312 312 312 311 310 309 308 307 306 305 304 304 304 303 302 301
295 295 295 295 295 295 295 295 295 295 294 294 295 294 294 294 294 294 294 295 295 296 295 295 296 296 296 296 295 295 295 295 295 295 295 295 296 296 297 297 297 297 297 299 300 301 302 302 302 302 302 302 303 304 306 309 311 313 315 316 316 316 315 314 314 314 314 313 312 311 311 310 310 309 308 307 306 304 302 302 302 301 300 300 299
295 295 295 294 294 294 294 294 294 294 294 294 294 294 294 294 295 294 294 295 295 296 296 296 296 296 296 296 296 295 294 294 295 295 295 295 295 295 295 296 296 296 297 297 298 298 299 300 301 301 302 303 303 303 304 306 308 310 312 313 314 314 313 312 312 312 312 311 310 310 309 308 308 307 307 306 303 301 300 300 299 299 299 299 299
294 294 294 295 294 294 294 294 293 293 294 294 295 295 295 295 295 295 295 295 296 296 296 296 296 296 296 296 296 295 294 294 294 295 294 294 294 294 294 294 295 295 296 296 297 297 297 298 299 300 301 303 303 304 304 305 306 309 310 312 313 313 312 312 311 311 310 310 309 308 308 307 307 306 305 303 300 299 299 298 298 298 298 298 297
294 294 295 295 295 295 295 294 294 294 295 295 295 295 295 295 296 295 296 296 296 296 296 296 296 296 296 296 296 295 295 295 295 295 295 294 294 294 294 294 294 294 295 295 296 296 296 297 298 299 300 302 304 305 306 306 306 308 310 312 312 312 311 311 310 309 309 308 308 308 308 307 306 304 301 299 298 298 299 298 298 298 297 296 295
295 294 295 295 295 295 295 295 295 295 295 295 295 295 295 295 296 296 296 296 296 296 296 296 296 296 296 296 296 296 296 295 295 295 295 294 294 294 294 294 294 294 294 295 295 295 295 296 297 298 299 301 302 305 306 306 306 306 308 310 310 310 310 310 309 309 309 309 307 307 307 305 303 300 299 298 298 299 299 299 299 297 296 295 294
294 294 295 295 295 295 295 295 295 296 296 295 296 296 296 296 296 296 296 296 296 296 296 296 296 296 296 296 296 296 296 296 296 295 295 294 294 294 294 294 294 294 294 294 294 294 294 295 297 298 299 300 301 303 304 305 304 305 306 307 307 307 308 308 307 307 308 308 306 305 304 303 300 299 298 298 299 299 298 298 298 296 294 294 293
294 294 295 295 295 295 295 295 295 296 296 296 296 296 296 296 296 296 295 295 295 295 295 296 296 295 295 295 295 295 296 296 295 295 294 294 294 294 294 294 294 294 294 294 294 294 295 296 297 298 299 300 301 302 303 303 303 304 305 306 306 305 306 306 306 305 306 307 305 304 302 301 299 298 298 298 298 298 297 297 296 295 294 294 294
294 294 295 295 295 295 295 295 295 295 296 296 296 296 296 295 295 295 295 295 294 294 294 294 294 294 294 295 295 294 294 295 294 294 294 294 294 294 294 294 294 294 294 294 294 295 295 296 297 298 299 299 300 300 301 302 302 303 304 304 304 304 304 305 305 305 306 306 304 303 302 300 298 297 297 297 296 295 295 295 294 293 293 294 294
295 294 295 295 294 295 295 296 296 296 296 296 296 296 296 295 294 294 294 294 294 294 294 294 294 294 294 294 294 294 294 294 294 294 294 294 295 295 295 295 295 295 295 295 295 295 296 298 299 299 299 299 299 299 300 301 301 302 302 302 303 304 304 304 304 304 305 303 301 300 300 299 298 297 296 296 295 294 293 293 293 293 293 294 293
295 294 294 294 294 295 295 295 295 295 295 295 296 296 296 296 295 294 294 294 294 294 294 294 294 294 294 294 294 294 294 294 294 294 294 294 295 295 295 296 296 296 297 296 296 296 297 298 299 299 299 299 299 299 299 300 300 301 301 301 302 303 303 303 303 303 302 301 299 298 298 298 297 296 296 295 294 293 293 292 292 293 293 293 292
295 294 294 294 295 295 295 295 295 295 295 295 296 295 295 296 296 295 295 295 295 295 294 294 294 294 294 294 294 294 294 294 294 294 294 294 294 295 295 296 296 297 297 297 296 296 297 298 298 298 299 299 299 299 299 299 299 300 300 300 300 301 301 302 301 300 299 298 297 297 296 295 295 295 294 294 293 292 292 292 292 292 292 292 292
294 294 294 294 295 295 295 295 295 295 295 295 295 295 295 295 295 296 296 296 296 295 295 295 294 294 294 294 294 294 294 294 293 293 293 294 294 294 295 296 296 296 296 296 296 297 297 297 298 298 298 298 298 298 298 298 299 299 299 300 299 299 299 300 299 298 297 296 295 294 294 294 293 293 293 292 292 292 292 292 292 292 292 292 292
294 294 294 294 294 295 295 295 295 295 295 295 295 295 295 295 295 295 296 295 296 296 296 295 295 295 295 295 295 295 295 294 293 293 294 294 294 294 295 295 295 296 296 296 296 296 297 297 297 297 297 297 297 297 297 298 298 297 298 298 298 297 297 297 296 295 295 295 294 294 294 294 294 294 293 293 292 292 292 292 292 292 291 291 291
295 294 294 294 294 294 295 295 295 295 295 295 295 295 294 294 294 295 295 295 295 295 295 295 295 295 295 296 295 295 295 294 294 294 295 295 295 295 295 295 295 295 295 296 296 296 296 297 297 297 297 297 297 296 296 296 297 297 297 297 296 296 296 295 294 294 294 293 293 294 294 294 294 293 293 292 292 291 291 291 291 291 291 291 291
295 295 294 294 294 294 294 294 294 295 295 295 295 295 294 294 294 294 295 294 294 294 295 295 294 294 295 295 296 296 295 295 295 295 295 295 295 295 295 295 295 295 295 295 296 296 296 297 297 297 297 297 296 296 295 295 295 295 295 295 295 295 295 294 293 293 293 292 292 293 293 293 293 292 292 292 291 291 291 291 290 290 290 290 290
295 295 294 294 294 294 294 294 294 294 294 294 295 295 294 294 294 294 294 293 293 294 295 295 294 293 293 293 294 295 295 295 295 295 295 294 295 295 295 294 294 294 295 295 295 295 296 296 296 296 296 296 296 295 294 294 294 293 293 293 293 293 293 292 292 292 293 292 292 293 293 292 292 292 292 292 292 291 291 290 290 290 290 290 290
295 294 294 293 293 294 294 294 294 294 294 294 294 295 294 294 294 294 294 293 293 294 294 294 293 292 291 291 293 294 294 293 293 293 293 293 293 294 295 295 295 294 294 295 295 295 295 295 295 295 295 295 294 293 292 292 292 292 292 292 292 292 292 292 292 293 293 293 293 293 293 292 292 292 292 292 292 291 291 290 290 290 290 290 290
295 294 293 293 293 293 293 293 293 294 294 294 294 294 294 294 293 293 293 293 293 293 294 294 293 292 291 291 292 293 292 292 292 292 291 291 291 292 293 293 294 293 294 295 295 295 295 295 294 294 293 293 292 292 291 291 291 291 291 291 291 292 292 293 293 293 293 293 292 292 292 292 292 292 292 291 291 291 290 290 290 290 290 290 290
295 294 293 292 292 293 293 293 293 293 293 293 294 294 294 293 293 293 293 293 293 293 293 293 292 291 291 291 291 292 291 291 291 291 291 291 291 291 291 292 292 293 293 294 294 295 294 293 293 292 292 291 291 291 290 290 291 291 291 291 292 292 292 292 292 292 292 292 292 292 292 292 292 291 291 291 290 290 290 290 290 290 290 290 291
295 294 293 292 292 292 292 293 292 292 293 293 293 293 293 293 293 293 293 293 293 293 293 293 292 291 291 291 291 291 291 290 290 290 290 290 290 290 290 291 292 292 292 293 294 294 293 292 292 291 291 291 291 291 291 291 292 292 292 292 292 292 292 292 292 292 292 292 292 292 291 291 291 291 290 290 290 290 290 290 290 290 290 290 291
295 294 293 292 292 292 292 292 292 292 292 292 292 293 293 293 293 293 293 292 292 292 292 292 292 291 291 291 290 290 290 290 290 290 289 289 289 289 289 290 291 292 292 293 293 293 293 292 291 291 291 291 291 292 292 292 293 293 293 293 292 292 292 292 292 292 292 292 292 291 291 291 291 290 290 290 290 290 290 290 290 290 290 290 290
295 294 293 292 292 291 291 291 291 291 292 292 292 292 292 292 292 292 292 292 292 292 291 291 291 291 290 290 289 289 289 288 288 288 288 288 288 288 288 289 290 291 292 293 293 293 293 292 292 292 292 292 292 292 292 292 293 293 293 292 292 292 292 292 292 292 291 291 291 291 291 291 290 290 290 290 290 290 290 290 290 290 290 290 290
295 294 293 292 292 292 291 291 291 291 292 292 292 292 292 292 292 292 292 292 292 292 291 291 290 290 290 289 289 288 288 288 288 287 287 288 288 287 287 288 289 290 291 292 292 292 293 292 292 292 292 292 292 292 292 292 292 292 292 292 292 292 292 292 291 291 290 291 291 290 290 290 290 290 290 290 290 290 290 290 290 290 290 290 290
294 294 293 292 292 292 291 292 292 292 291 291 291 291 292 292 292 292 292 292 291 291 291 291 290 290 289 289 289 288 288 288 288 287 287 287 287 287 287 288 289 290 290 291 291 292 292 292 292 292 292 292 292 292 293 292 292 292 292 292 292 292 291 291 290 290 290 290 290 290 290 290 289 290 290 290 290 290 290 290 290 290 290 290 290
294 293 293 292 292 291 291 291 292 291 291 291 291 291 292 292 292 291 291 291 291 291 291 291 290 290 290 290 290 289 289 289 288 288 288 287 287 287 288 288 289 289 290 290 291 292 292 292 292 292 292 292 292 292 292 292 292 292 292 291 291 291 291 290 290 290 290 290 290 290 290 290 289 289 289 289 290 290 290 290 290 290 290 290 290
294 294 293 292 292 292 291 291 291 291 291 291 291 291 291 291 291 291 291 291 291 291 291 291 291 290 291 291 291 291 290 290 289 289 289 289 288 288 289 289 289 290 290 290 291 291 291 291 291 291 291 291 291 291 291 291 291 291 291 291 291 290 290 290 289 289 289 289 290 290 289 289 289 289 289 289 289 290 290 290 290 289 289 290 290
294 294 293 292 292 292 291 291 291 291 291 291 292 292 291 291 291 291 291 291 291 291 291 291 291 291 291 291 291 291 291 291 290 290 290 290 289 289 289 290 290 290 290 290 289 289 288 289 289 289 289 289 289 289 290 290 290 290 290 290 290 290 289 289 289 289 289 289 289 289 289 289 289 289 289 289 290 290 289 289 289 289 289 290 290
294 294 294 293 292 292 291 291 291 291 291 291 292 292 291 291 291 291 291 291 291 291 291 291 291 291 291 291 291 291 291 291 291 290 290 289 289 289 289 289 289 289 289 288 288 287 287 287 287 287 287 287 287 287 287 288 288 289 289 289 289 289 289 288 288 289 289 289 289 289 289 289 289 289 289 289 290 290 289 289 289 289 290 290 290
293 294 294 293 292 292 292 292 292 292 291 291 292 292 292 291 291 291 290 291 291 291 291 291 291 291 291 290 290 290 290 290 290 289 289 289 289 288 288 288 288 288 288 288 288 288 288 287 287 287 286 286 286 286 286 287 287 288 288 288 288 288 288 288 288 288 289 289 289 289 289 289 289 289 289 289 289 289 289 289 289 289 289 290 290
Wind_Speed
24 21 18 18 18 19 19 19 20 21 20 19 18 17 16 15 14 14 13 11 9 8 8 8 7 6 6 6 8 9 8 6 6 6 6 6 6 6 5 5 3 2 3 4 6 6 6 7 8 10 11 10 12 14 15 17 19 18 17 13 7 6 10 8 7 9 11 12 10 11 15 17 15 15 14 15 16 15 13 12 10 8 8 7 7
23 21 20 18 17 18 18 18 19 20 19 19 18 17 15 14 13 13 12 10 9 8 8 8 7 6 5 6 8 9 7 6 6 6 6 6 6 6 5 5 4 3 2 2 4 5 6 7 9 12 12 12 13 13 14 16 17 17 17 13 8 8 11 9 7 9 10 12 11 11 16 17 14 15 16 16 16 15 13 12 11 10 9 8 8
24 23 21 19 19 18 18 19 20 20 20 19 18 16 15 14 13 12 11 10 9 8 7 7 7 6 6 7 9 8 6 5 5 6 6 6 5 5 4 4 4 4 3 3 2 2 4 7 9 12 14 13 13 13 14 16 15 13 14 13 10 11 13 11 8 9 10 11 12 12 15 18 14 13 16 17 17 15 12 11 12 11 11 10 9
27 26 24 22 21 20 20 21 21 21 20 20 18 17 15 14 13 12 11 10 9 8 7 7 6 6 7 8 9 7 5 5 4 5 5 5 5 5 4 4 3 3 4 4 4 4 2 6 9 12 14 14 14 14 14 16 14 11 12 13 12 13 16 14 9 8 9 11 13 11 13 17 15 13 16 17 17 15 12 12 12 11 12 11 11
27 26 25 23 22 21 20 21 21 21 21 19 18 17 16 15 14 12 11 11 10 9 8 7 7 7 8 8 8 6 5 4 4 4 5 5 5 4 3 3 3 3 3 3 4 6 4 3 8 12 13 14 15 15 15 16 14 11 11 12 12 13 17 17 11 8 8 10 12 13 13 14 14 14 16 15 15 14 12 12 13 12 13 14 14
26 24 23 23 21 19 17 16 17 18 19 19 18 18 17 16 14 13 12 12 12 10 10 9 8 8 7 7 7 6 5 4 3 4 4 4 4 3 2 1 2 2 2 2 3 5 6 3 5 10 12 13 14 15 15 15 14 12 12 12 12 13 16 17 14 10 9 9 11 14 15 15 15 15 17 16 13 13 12 12 12 13 15 16 15
20 19 19 20 20 19 18 16 16 17 18 19 20 19 18 16 14 13 12 12 12 11 10 9 8 7 7 6 6 6 5 4 3 4 4 4 4 4 3 2 1 1 1 2 2 3 4 4 2 4 8 11 12 13 13 13 13 13 14 14 14 15 16 16 14 12 11 10 10 12 15 17 16 14 17 17 14 13 13 13 13 14 15 16 16
15 16 17 17 18 19 20 19 20 20 20 20 20 19 17 15 14 13 11 10 9 8 8 7 7 6 6 5 5 4 4 4 4 3 4 4 4 3 3 2 3 2 1 0 0 1 3 2 2 1 2 5 7 8 9 10 10 11 13 14 15 17 16 15 14 13 12 12 12 11 12 15 16 14 15 16 15 14 16 15 13 15 17 17 18
16 16 17 16 15 17 19 21 21 21 20 19 19 17 16 15 14 13 11 8 6 4 5 5 5 5 4 3 3 3 3 3 3 3 2 3 3 2 2 2 4 4 3 2 2 1 1 1 1 1 0 1 3 4 5 6 7 8 10 10 12 14 14 13 13 12 12 13 12 11 11 13 15 15 15 18 19 16 17 17 14 14 16 16 17
19 20 20 18 16 16 18 21 20 18 17 16 15 14 13 12 10 8 8 8 5 2 3 4 4 3 3 2 2 2 3 3 4 3 2 2 2 1 1 2 4 5 5 4 4 3 3 2 1 1 1 2 3 4 5 6 7 7 8 8 8 10 11 11 11 11 12 12 12 12 12 13 15 18 19 21 20 16 17 20 15 13 15 13 12
25 25 24 22 20 19 20 19 17 16 16 16 15 15 14 13 12 11 10 11 9 7 5 5 5 6 6 6 6 5 3 1 2 3 3 2 2 1 0 1 3 4 5 4 4 4 5 4 4 4 3 3 4 5 6 7 8 8 8 8 8 8 9 9 10 10 11 11 10 11 13 13 15 19 20 20 21 20 21 22 17 16 17 14 12
29 28 27 25 23 22 21 20 19 18 18 17 17 18 18 18 18 17 16 14 13 11 10 10 10 10 10 10 10 9 8 6 3 1 1 2 3 3 2 1 2 2 3 3 3 4 4 5 6 6 6 6 7 7 8 8 9 10 10 10 9 10 11 11 11 12 13 12 11 12 15 14 15 19 22 22 24 25 23 21 21 20 20 18 15
30 28 27 27 26 24 23 22 22 21 20 20 20 19 19 19 19 18 18 16 15 14 13 13 13 12 12 11 11 10 9 8 7 5 3 2 1 2 3 3 3 4 4 5 5 6 6 7 8 8 9 9 9 10 10 10 11 11 12 12 12 12 12 13 14 15 17 16 14 15 19 19 17 20 24 24 25 26 23 22 24 25 22 20 16
32 31 30 30 29 27 25 24 23 23 22 21 20 20 20 20 20 19 18 17 17 16 15 14 14 13 13 12 11 10 9 8 7 6 5 4 3 1 1 2 3 5 6 7 7 8 8 8 9 10 10 10 11 12 12 13 13 13 13 14 14 14 14 14 15 16 18 20 19 19 21 22 21 22 24 23 24 25 24 25 26 26 23 19 17
33 33 33 31 30 30 29 28 27 25 24 22 22 22 22 22 21 20 19 18 18 18 17 16 16 15 14 12 11 10 10 8 6 4 4 3 2 2 1 1 2 3 4 5 6 7 8 9 10 11 11 12 12 12 12 13 14 15 16 16 16 16 16 16 17 18 19 21 21 22 22 23 22 21 21 22 22 23 26 27 27 27 24 19 16
31 31 31 29 28 28 28 27 26 25 25 24 23 23 22 21 20 19 18 17 17 16 15 15 15 14 13 12 11 11 10 7 6 4 3 3 2 2 2 2 3 3 4 5 6 7 7 8 9 10 11 12 12 12 11 12 14 15 16 17 18 18 19 19 19 20 21 21 22 23 23 23 23 22 21 21 20 21 24 24 21 20 17 12 10
29 28 27 26 26 25 24 24 24 23 23 23 22 21 20 19 18 17 16 16 15 14 13 13 12 12 11 10 10 9 9 7 6 5 4 4 3 3 3 3 4 4 5 6 6 7 8 9 10 11 13 13 13 12 11 11 13 14 15 17 18 19 20 21 22 22 22 23 23 24 24 24 24 23 23 23 20 19 20 19 17 15 14 12 11
27 26 25 23 23 23 22 22 22 22 21 21 20 19 18 17 16 15 15 15 14 13 12 11 10 10 9 9 8 8 7 7 6 6 6 6 5 6 6 6 6 7 7 7 7 7 8 9 10 11 13 14 13 13 13 12 12 13 14 14 15 16 18 21 22 22 22 23 23 23 23 23 22 22 21 21 21 20 20 21 21 22 23 21 16
24 23 22 21 20 20 20 20 20 20 20 19 18 17 16 15 14 13 13 13 12 11 10 10 9 9 8 8 7 6 6 6 6 6 6 6 7 7 7 8 9 9 10 11 11 10 10 10 10 11 12 13 13 13 13 13 12 12 12 12 13 14 16 18 19 19 20 21 20 21 21 20 19 19 19 20 19 19 20 22 24 25 25 21 16
21 20 20 19 19 19 19 19 19 19 18 16 16 15 14 13 13 12 12 12 11 10 10 9 9 8 8 7 6 6 5 5 5 5 6 6 6 7 7 8 9 10 11 12 13 13 13 13 12 12 13 13 14 15 15 15 15 13 11 12 15 16 16 16 17 16 17 18 18 19 19 19 18 19 20 20 19 20 21 22 24 26 23 19 17
19 20 20 20 19 19 18 18 18 17 16 15 14 14 14 13 12 12 12 11 10 10 9 9 9 8 8 7 7 7 6 5 5 5 6 7 7 7 7 7 8 10 11 12 12 13 14 14 14 14 14 15 15 15 16 16 16 16 15 16 18 18 16 15 16 16 16 17 17 17 17 18 18 19 20 20 21 22 23 22 23 25 25 20 17
18 19 20 19 19 18 17 16 16 16 15 14 14 14 13 12 11 11 11 10 10 10 10 10 9 8 8 8 8 8 8 7 7 6 6 7 7 6 7 8 9 9 10 10 9 10 11 13 14 15 15 16 16 17 17 17 16 17 18 18 18 18 17 16 17 17 17 17 17 17 17 18 19 20 20 20 22 23 23 22 21 21 21 18 15
18 18 18 18 17 16 16 15 15 14 13 13 13 12 12 11 12 12 12 11 10 10 10 10 9 8 8 8 9 10 10 10 9 8 8 7 8 7 8 8 9 10 10 10 10 11 11 11 13 14 15 15 16 17 18 19 19 19 19 18 17 17 17 17 17 18 19 20 19 19 19 20 22 22 22 23 24 24 23 21 19 18 18 16 13
17 17 16 15 15 14 14 14 13 12 12 12 11 12 12 11 11 12 12 11 9 8 9 9 9 8 8 8 9 11 13 13 12 11 10 9 9 9 9 10 11 11 12 12 13 13 13 14 14 15 15 16 17 17 18 20 21 21 21 19 17 17 18 18 18 19 20 21 21 20 21 23 23 23 25 26 25 24 22 19 17 17 17 14 12
16 15 14 13 12 12 12 12 12 12 12 12 11 11 11 11 9 9 10 9 8 7 7 8 7 7 7 7 8 10 14 15 15 15 14 13 11 11 11 11 12 13 13 14 14 15 16 16 15 15 16 16 17 18 19 20 20 20 20 20 19 18 19 20 19 18 19 21 22 22 23 24 24 25 26 26 24 23 22 20 18 17 15 13 12
14 13 12 11 10 10 9 10 11 12 12 12 11 11 11 10 8 8 8 7 7 6 6 6 6 6 6 7 8 10 13 14 15 16 17 17 16 16 15 14 14 15 15 15 16 17 19 18 17 16 15 15 16 18 20 21 21 20 19 20 20 20 20 21 20 18 18 19 22 24 25 24 25 25 24 24 24 24 24 22 20 17 15 14 13
11 10 10 9 9 9 9 10 10 10 12 11 10 10 11 10 8 8 8 8 8 8 8 8 8 8 8 9 10 12 13 14 14 15 16 17 18 20 20 19 18 18 18 16 18 19 20 21 20 19 16 15 15 16 18 20 21 20 19 20 20 20 20 21 21 21 20 19 20 23 25 24 24 24 25 26 27 25 24 23 21 19 18 15 13
11 10 9 9 9 9 10 10 10 9 11 12 11 10 10 10 9 9 9 8 8 8 8 8 8 8 9 10 11 12 12 13 13 15 17 19 20 21 22 21 21 21 21 21 22 22 19 19 19 17 14 12 12 12 12 14 17 18 17 18 18 18 18 19 19 20 21 20 20 21 23 24 26 27 29 29 28 26 24 23 22 22 20 16 12
10 10 9 9 9 9 9 10 10 10 10 11 11 11 10 10 9 7 7 6 5 5 6 6 7 7 8 9 10 11 12 13 14 17 19 19 19 20 21 21 22 23 23 23 25 23 20 21 21 18 13 11 10 10 10 11 14 14 14 14 15 14 15 16 17 17 18 20 21 22 24 25 27 30 32 31 29 28 26 23 22 22 19 14 10
9 9 9 9 9 9 8 8 10 11 10 10 10 10 11 12 12 9 6 3 2 2 3 4 5 6 7 8 8 9 12 14 16 18 19 18 18 19 19 20 21 22 22 22 22 20 20 21 21 17 13 10 10 10 10 12 14 13 13 14 14 13 13 13 14 15 16 19 21 23 25 27 30 33 34 33 31 29 25 23 21 19 15 11 9
7 8 8 8 9 8 8 8 9 10 10 10 10 8 8 10 13 13 9 6 5 4 3 3 4 4 6 7 9 10 12 14 16 17 18 18 19 18 18 18 18 19 19 19 19 18 17 16 15 14 11 10 10 11 12 13 14 14 14 15 14 13 13 13 13 13 16 18 21 22 25 29 34 36 35 33 31 28 23 20 17 14 11 9 8
7 7 8 8 8 8 8 8 8 8 9 10 10 9 7 7 9 11 13 13 12 10 8 7 6 5 5 7 9 11 12 13 14 15 16 17 17 17 16 17 16 17 17 16 15 14 13 12 11 11 11 11 11 11 12 13 13 13 14 15 15 14 13 12 12 13 15 18 21 23 25 30 34 35 33 31 29 25 22 19 15 11 8 7 7
7 7 7 7 7 8 8 8 9 9 9 9 9 9 9 8 7 8 10 13 14 14 13 12 10 7 7 7 8 10 12 14 14 14 14 14 14 15 15 16 15 15 14 11 8 8 9 9 10 10 10 11 12 13 14 14 13 12 13 14 14 13 13 13 12 12 14 17 20 21 23 26 28 29 28 27 25 22 20 17 14 11 9 7 6
6 6 6 7 7 7 9 10 11 11 11 10 10 9 10 11 10 9 9 11 13 13 14 15 14 11 10 11 11 12 13 14 14 14 14 14 14 15 15 14 13 11 10 8 6 7 8 9 11 11 11 12 14 14 14 14 12 12 12 13 11 9 11 14 13 12 15 18 19 20 21 21 22 23 24 23 22 19 16 13 12 11 8 7 5
6 5 5 6 8 9 10 12 13 13 11 10 10 10 10 11 11 10 10 10 11 11 12 13 15 15 14 14 14 13 14 15 14 14 15 16 16 16 13 11 10 9 9 8 7 7 8 9 10 11 11 12 12 12 13 14 12 11 11 11 9 9 10 12 12 13 17 19 21 23 23 22 22 23 23 22 20 16 13 10 10 9 8 6 5
7 5 4 5 6 7 8 10 11 11 11 10 9 10 10 11 10 9 9 10 11 10 10 12 14 16 17 17 15 13 14 15 14 14 14 15 16 15 13 11 10 10 8 8 8 8 8 9 9 9 9 10 9 8 9 11 11 11 11 11 11 11 12 13 14 17 20 22 24 25 25 24 24 24 23 21 18 15 13 11 10 8 7 6 5
6 6 5 5 5 5 5 6 8 9 9 9 9 9 10 10 11 10 9 11 13 11 10 11 14 16 18 20 18 16 14 14 12 12 13 14 15 15 13 11 10 10 8 8 8 9 9 8 9 9 9 8 8 7 7 8 10 11 11 9 9 11 13 15 18 21 24 25 25 26 26 25 24 23 21 19 16 14 13 12 9 7 6 6 5
6 6 6 6 5 3 2 3 5 7 8 8 9 9 9 9 10 10 10 13 14 12 10 11 12 13 14 18 20 19 17 15 14 14 14 15 15 15 15 14 13 10 9 9 8 8 8 8 8 9 9 8 8 6 6 6 7 8 8 7 9 12 15 18 21 23 25 25 24 24 24 22 20 17 15 14 13 12 11 11 8 7 7 7 6
6 6 7 7 6 4 3 3 4 5 6 7 7 9 9 8 8 10 11 14 14 12 10 10 11 10 11 15 19 19 16 14 13 13 13 13 13 14 16 18 16 11 10 10 9 9 9 9 8 7 7 7 6 5 3 2 3 6 8 11 14 17 19 20 22 23 23 23 22 22 20 18 16 13 11 10 11 12 12 11 9 7 7 7 6
5 6 8 9 8 6 4 4 4 4 5 6 6 7 8 7 7 9 12 14 13 11 9 8 9 10 11 14 17 17 14 10 10 10 10 10 11 12 14 15 14 12 11 12 11 10 10 8 6 5 5 5 4 3 3 4 7 11 14 17 19 19 18 18 19 20 21 20 19 18 17 16 14 13 12 12 13 13 13 11 10 8 7 6 5
5 7 8 10 9 7 5 4 4 4 5 6 6 6 6 5 5 7 10 12 12 10 8 7 7 8 12 15 16 14 10 8 8 9 8 8 9 10 11 11 11 12 13 13 12 10 8 6 5 5 5 4 5 7 9 12 14 16 18 19 19 18 17 16 16 16 16 15 15 14 14 14 14 14 14 14 13 12 11 10 9 8 7 5 4
5 6 7 8 8 7 5 4 4 4 5 6 5 5 5 5 5 6 8 10 10 9 8 7 7 8 11 15 16 13 9 8 8 9 9 9 9 9 10 10 11 11 12 13 11 8 6 5 5 6 7 8 10 12 14 15 16 16 17 17 17 16 14 13 12 12 11 11 11 11 11 12 13 14 14 14 13 11 10 10 8 7 6 5 3
4 5 6 7 7 6 5 4 4 5 5 5 4 4 5 5 5 5 7 8 8 8 7 7 7 8 12 15 15 12 9 9 9 9 9 9 9 10 10 10 10 10 10 10 7 6 6 7 7 8 10 11 12 12 13 14 14 15 15 15 14 14 13 12 12 12 11 11 10 10 11 13 14 14 15 14 12 10 9 9 7 6 5 4 3
3 4 6 7 7 6 4 4 5 5 4 4 3 4 5 4 4 4 6 6 6 7 7 7 8 10 13 14 14 11 10 10 11 10 10 10 10 10 10 10 9 9 9 7 6 6 7 8 9 11 12 12 13 13 14 14 14 14 14 14 13 12 12 12 12 12 11 10 10 11 13 14 14 14 14 12 10 9 9 7 6 5 4 4 4
2 3 4 5 6 5 5 5 5 5 5 5 5 5 5 4 3 4 6 7 7 8 7 7 8 12 13 13 12 12 11 11 11 11 10 10 10 9 10 9 9 9 9 8 6 7 9 10 12 13 13 13 14 15 15 16 16 15 15 13 12 11 11 10 9 9 8 9 11 13 14 14 14 12 11 10 9 9 8 5 5 5 5 4 3
2 2 4 5 5 5 5 5 5 6 7 7 6 5 4 4 4 5 7 9 9 8 7 7 9 12 12 11 11 12 13 12 12 12 11 11 10 10 10 10 10 9 9 9 9 10 12 13 13 14 14 15 15 16 15 15 15 13 13 12 11 10 10 9 9 8 7 8 11 13 14 14 13 11 10 9 8 7 6 5 4 5 5 4 3
3 2 4 5 5 5 4 5 5 6 7 7 6 4 4 5 4 4 7 9 9 7 6 7 8 9 9 9 9 10 12 13 13 13 13 12 12 12 12 13 13 12 11 11 13 14 14 14 14 14 14 14 14 13 12 12 10 9 9 9 9 9 9 9 8 8 7 7 9 11 12 13 12 10 9 9 7 5 5 6 6 5 5 4 3
4 3 3 4 4 4 4 4 5 6 6 7 7 5 5 5 4 4 5 6 7 6 6 6 6 6 6 8 9 10 10 11 12 13 14 14 15 15 16 17 16 15 15 14 16 17 17 17 17 16 15 14 12 11 9 8 6 6 6 7 8 8 8 8 7 7 8 8 9 9 10 11 11 9 8 7 6 5 5 6 5 4 4 4 3
5 4 3 3 4 4 4 4 4 5 6 7 7 7 6 5 4 4 4 5 6 6 5 5 5 5 6 8 9 10 10 10 11 13 15 16 16 16 17 17 17 17 16 16 17 18 18 18 17 16 15 14 12 11 10 9 7 6 7 7 8 7 7 7 7 8 8 9 9 9 9 10 10 9 7 6 6 6 5 4 4 5 5 4 3
6 5 4 3 4 4 4 3 4 4 5 5 5 6 7 6 4 4 4 5 5 6 6 6 6 6 7 9 10 11 12 12 13 14 15 15 16 15 15 16 16 16 16 16 16 16 16 15 14 14 14 13 13 12 12 11 10 9 9 9 8 8 7 7 7 8 9 9 8 8 9 9 8 7 6 6 7 7 6 5 5 6 5 4 3
6 6 6 4 4 4 4 4 3 3 4 5 4 4 5 6 5 4 4 5 5 6 6 7 7 7 7 8 9 10 11 11 11 11 12 14 14 14 14 14 14 14 15 14 14 14 13 13 12 12 12 13 13 13 13 12 11 11 10 10 9 8 8 7 8 9 10 9 8 8 7 6 6 5 5 5 5 5 5 4 4 4 3 3 3
Wind_Direction
161 168 173 179 184 185 187 185 183 182 180 179 177 172 175 181 181 176 168 163 163 161 163 166 156 139 125 132 144 139 118 92 83 90 95 92 89 83 71 67 79 130 186 205 205 200 194 184 182 184 181 182 188 186 192 201 199 196 194 191 198 197 182 172 152 150 173 183 173 175 183 182 183 185 185 185 185 181 180 183 179 175 183 191 197
163 168 171 177 181 184 185 184 182 180 177 177 175 171 176 181 179 174 167 163 161 158 160 161 151 135 126 138 148 137 116 97 87 88 94 95 89 81 72 63 62 74 113 165 187 195 189 179 183 185 181 184 187 182 187 194 193 194 197 194 197 198 187 180 166 157 171 184 183 184 188 189 189 192 194 193 192 193 197 200 197 194 202 204 207
165 169 170 174 179 182 184 182 179 177 175 174 172 172 175 176 174 171 166 160 154 150 154 154 150 142 135 143 148 137 120 107 97 89 92 97 95 88 80 70 69 75 85 98 109 162 184 184 186 184 181 182 184 181 183 187 186 190 198 200 203 204 196 189 182 175 171 178 185 187 189 192 193 194 197 200 201 203 208 214 213 214 216 210 212
164 167 170 174 177 178 180 180 178 174 171 170 170 171 171 169 167 166 161 153 146 144 149 152 151 148 146 146 147 142 130 119 109 101 100 102 101 95 80 68 77 92 84 69 51 46 127 185 189 183 181 181 184 186 185 185 187 191 202 209 210 211 207 201 195 188 180 179 185 187 189 193 195 196 198 203 208 209 214 219 217 218 216 207 210
163 166 169 171 171 173 175 175 173 170 169 168 166 163 160 159 160 159 153 145 140 140 142 142 144 146 149 149 149 149 144 130 114 109 112 111 109 104 87 64 74 114 103 65 37 29 45 157 186 185 183 182 184 189 189 192 199 205 213 216 214 217 217 212 207 201 195 187 185 188 189 189 194 200 199 199 204 206 212 217 211 207 207 206 211
161 163 165 162 161 162 159 153 153 160 164 162 158 155 154 154 154 152 147 141 139 138 136 132 131 136 144 151 158 163 158 143 118 107 114 121 116 109 115 100 79 108 109 70 31 9 20 50 170 185 189 191 190 191 195 201 211 217 221 221 217 221 224 220 217 216 215 206 191 191 194 193 195 201 201 198 196 196 199 204 205 205 206 207 210
150 146 147 149 149 150 148 146 153 161 161 155 152 151 150 150 149 145 144 142 140 140 139 138 136 135 137 144 154 165 171 168 142 107 102 118 126 115 118 167 197 135 89 56 28 335 346 14 74 172 191 198 200 201 204 210 217 222 229 233 232 232 230 225 222 219 218 216 204 195 196 198 198 200 204 204 201 200 199 195 195 199 203 204 207
123 117 122 126 129 136 143 149 153 153 149 145 144 144 143 143 141 139 142 145 145 149 154 156 158 155 151 148 152 163 172 176 166 132 106 110 120 111 104 152 199 201 181 70 21 304 306 331 13 74 180 200 209 213 216 222 228 235 241 243 243 242 238 229 224 219 215 217 214 204 198 199 200 200 202 202 205 211 208 201 198 198 200 204 207
106 105 105 105 111 124 131 134 133 132 134 134 134 134 133 131 131 132 136 134 132 154 179 189 195 191 183 182 192 205 205 198 192 173 141 121 115 96 92 143 183 194 191 195 207 235 276 295 327 359 337 243 241 238 240 246 250 255 258 254 248 243 237 229 223 218 215 217 215 206 202 203 201 198 199 204 209 211 208 207 206 200 198 201 207
104 105 103 102 108 116 120 124 125 125 126 126 127 132 134 133 135 142 148 146 141 157 198 207 210 195 179 175 186 213 230 233 227 217 204 184 169 149 80 140 171 185 194 202 210 217 224 239 261 294 302 285 279 271 267 268 269 270 272 271 261 245 231 222 215 211 213 218 216 208 208 211 207 204 208 213 213 209 209 211 208 197 195 195 205
104 105 108 111 117 119 121 123 125 123 120 119 123 129 134 136 136 138 142 142 140 143 148 145 131 121 119 111 101 98 104 148 223 233 234 231 220 207 182 149 172 188 204 212 214 217 221 233 247 258 273 282 284 284 279 274 271 268 267 270 271 262 250 239 230 224 222 221 219 215 216 219 218 216 217 217 216 215 216 215 208 199 199 201 205
100 100 105 110 113 117 120 120 119 118 117 119 121 122 122 122 121 122 123 122 123 126 126 121 115 109 108 106 98 92 87 81 81 108 218 236 241 234 231 230 212 220 232 239 248 248 242 246 251 255 262 267 269 270 269 267 265 262 259 258 259 262 261 258 252 248 245 240 232 230 233 233 230 230 230 227 227 226 221 215 213 209 207 211 213
97 96 98 101 102 105 112 113 113 112 112 115 117 117 116 112 110 110 109 109 112 112 109 109 109 106 106 104 99 93 85 76 73 76 88 117 197 224 236 246 249 253 257 260 263 266 265 266 265 266 267 267 266 264 261 260 260 259 259 257 257 259 259 259 258 257 257 253 245 245 251 250 243 246 249 243 235 229 220 215 219 217 215 218 216
90 91 92 95 97 99 103 106 107 107 107 109 109 109 107 105 105 105 104 104 104 101 99 99 99 98 98 98 96 92 82 71 65 65 68 76 93 124 206 239 253 261 266 269 271 273 275 276 276 278 277 274 272 270 266 263 259 255 256 256 257 260 260 260 260 258 258 258 253 255 262 262 257 259 263 258 246 237 230 226 226 222 218 218 217
84 86 89 92 95 98 100 102 104 104 105 105 103 101 99 98 100 102 102 101 99 96 96 95 93 94 94 94 94 89 82 74 67 60 51 45 46 49 35 290 279 278 276 277 277 279 280 281 282 284 284 282 280 278 274 270 265 260 256 256 257 259 260 260 259 257 257 258 258 259 262 265 264 262 264 264 259 251 245 240 235 229 221 216 218
80 81 84 87 91 94 96 98 100 100 101 102 99 97 96 94 93 94 96 97 96 96 94 91 90 91 90 90 89 82 77 72 66 61 50 31 12 354 334 316 308 303 296 290 284 280 280 279 279 279 280 282 282 281 280 276 271 266 261 259 259 258 260 260 257 255 253 253 256 257 256 259 262 261 260 262 262 257 250 243 237 228 213 204 212
77 77 79 81 84 87 90 91 91 91 91 91 90 88 89 88 89 91 93 94 94 92 90 87 85 85 83 81 77 69 62 53 45 39 29 20 8 352 342 328 316 308 306 303 297 293 288 283 281 280 278 279 279 279 281 279 275 271 265 262 261 259 260 260 257 254 253 253 254 256 257 260 263 264 264 262 262 258 243 229 222 214 202 200 209
78 76 75 76 77 80 83 84 84 83 81 81 79 78 78 78 79 83 85 87 88 87 86 85 82 78 76 73 69 62 51 35 22 15 7 359 353 346 338 329 321 313 307 304 300 298 295 290 289 287 284 283 282 278 276 277 276 271 265 262 259 256 259 262 260 257 257 257 257 258 260 263 264 265 265 263 265 264 250 236 229 219 211 210 209
80 78 76 75 73 74 75 76 78 78 77 77 76 75 74 72 72 74 75 76 78 79 79 79 76 72 69 66 64 61 51 27 7 359 351 342 339 339 334 327 321 312 306 302 297 293 291 288 287 286 283 283 283 279 277 277 275 268 263 261 255 252 259 265 265 265 263 262 263 264 264 265 263 261 263 265 267 263 253 243 232 218 210 209 202
84 83 80 77 74 72 71 71 73 74 74 76 76 76 75 73 71 70 69 68 67 67 67 66 64 61 56 51 46 45 43 26 5 353 343 337 334 333 332 327 319 312 307 304 300 296 293 289 286 284 282 280 278 276 274 271 270 266 261 256 252 254 262 267 267 265 265 265 266 265 264 264 260 258 261 261 258 249 240 234 226 218 214 209 199
87 85 82 79 76 72 70 70 70 71 72 74 75 74 72 68 66 63 61 58 54 51 50 48 48 45 39 36 31 25 22 16 2 346 334 330 330 332 334 326 317 313 310 307 305 302 298 295 291 287 284 282 278 275 271 266 264 260 254 252 255 260 264 266 265 264 262 261 261 258 257 258 257 257 256 250 242 237 230 223 218 217 217 213 204
89 86 83 82 78 75 72 70 69 68 66 65 66 64 59 55 53 51 48 45 41 37 33 32 32 27 21 19 14 8 3 360 355 346 334 323 315 318 325 321 320 321 318 312 308 304 301 300 296 289 284 281 278 275 272 268 264 259 255 254 257 260 259 255 257 258 255 252 251 248 247 247 246 246 242 234 228 223 215 210 209 211 212 211 204
86 83 81 79 76 73 70 67 66 64 60 56 55 52 47 41 37 35 34 33 32 29 27 25 25 23 18 13 7 1 355 352 350 348 344 334 321 313 308 308 314 320 320 316 310 306 305 304 300 296 292 286 281 277 273 270 267 263 261 259 257 254 250 247 246 247 246 244 242 240 237 236 235 234 230 224 219 212 206 205 206 202 196 191 186
84 81 80 78 74 71 68 64 61 57 52 50 48 43 40 37 32 29 29 28 28 26 23 22 21 20 16 9 3 359 354 350 347 342 338 336 333 327 317 310 308 308 311 313 313 311 310 307 304 302 298 292 288 283 278 275 272 269 267 266 264 256 245 238 238 237 237 235 232 230 229 228 227 226 223 217 209 203 199 196 191 186 183 181 181
82 80 80 78 76 74 71 65 62 59 53 51 49 43 39 38 34 30 28 28 28 25 21 21 19 16 10 5 358 352 351 351 349 345 341 338 336 332 327 322 316 310 307 306 305 307 307 305 304 302 297 293 289 285 281 277 274 272 268 266 268 263 248 238 233 230 229 229 227 226 227 226 224 223 219 208 196 188 184 178 173 174 177 178 178
80 79 78 78 75 71 70 68 66 62 57 53 50 46 42 40 38 34 32 30 29 26 21 16 15 11 5 357 348 343 344 346 346 346 345 343 340 336 333 331 327 322 318 312 309 310 310 309 309 306 301 296 290 284 281 277 272 268 265 263 264 262 251 240 231 225 224 225 225 225 226 225 222 217 208 194 184 180 178 174 169 170 175 176 173
83 79 77 75 70 66 70 71 63 55 51 48 45 43 40 38 35 31 28 23 19 18 15 10 9 5 356 348 343 340 339 340 343 346 344 340 337 334 333 334 333 330 327 323 318 316 314 314 316 314 309 304 299 291 286 282 276 270 266 266 266 261 253 245 239 235 233 231 227 223 220 217 211 203 193 186 182 181 181 180 175 174 176 177 174
80 74 70 66 63 64 68 65 54 45 45 45 44 41 36 35 34 29 24 19 13 8 5 4 1 354 346 341 338 336 334 335 338 338 334 331 328 326 326 327 327 325 325 323 320 317 315 316 319 319 313 306 302 296 291 289 286 279 273 274 273 268 261 251 242 237 235 232 226 217 210 205 200 193 186 184 182 180 181 183 179 175 175 175 170
76 66 62 61 61 62 60 53 44 39 41 44 49 49 43 39 38 30 21 19 15 5 356 351 349 343 335 332 333 330 326 325 325 325 325 324 322 319 318 317 317 318 319 319 318 317 318 320 321 320 315 306 301 297 297 300 298 290 283 280 277 271 262 250 237 231 231 229 222 212 203 197 193 188 183 180 180 180 180 181 179 175 173 172 171
73 63 61 61 60 59 55 48 42 39 37 40 47 52 49 43 38 34 30 28 36 31 1 345 344 340 327 320 319 316 313 314 318 322 325 324 322 320 316 314 314 315 316 317 317 317 318 318 318 316 312 307 304 302 303 303 301 296 291 288 280 267 256 244 233 230 233 229 220 211 203 195 186 182 179 177 175 175 176 177 175 172 170 171 171
77 71 71 68 64 60 55 51 47 41 37 38 40 43 46 40 35 37 50 71 86 82 62 33 18 1 333 317 313 313 314 316 320 323 324 323 323 321 317 315 315 314 315 315 315 313 311 309 309 311 311 308 304 303 303 302 301 297 294 292 285 271 256 245 237 238 237 226 213 206 201 193 186 181 178 176 172 169 169 169 168 167 170 172 168
89 87 86 75 66 61 56 53 50 42 37 39 40 38 39 40 35 38 51 66 74 72 64 50 34 18 353 331 321 321 322 321 321 323 324 323 324 322 319 317 317 316 317 315 312 309 307 304 305 308 307 302 299 297 298 298 296 293 291 288 284 277 264 251 245 244 235 219 207 200 195 191 185 180 177 174 169 165 164 164 163 161 163 163 157
100 97 93 80 68 61 53 48 43 37 35 40 44 40 37 38 38 34 37 46 51 50 45 38 31 21 10 357 342 333 331 331 332 335 335 332 329 323 320 320 320 320 322 320 311 305 307 306 305 303 299 298 299 299 299 297 293 291 286 280 276 273 265 256 250 238 222 210 201 192 187 183 179 174 168 164 159 157 159 162 160 158 158 156 150
98 95 85 71 59 49 43 38 34 32 36 41 45 44 38 35 34 29 22 22 25 26 25 25 26 24 20 13 2 350 344 345 347 347 344 341 335 328 324 326 329 333 337 338 328 318 315 312 307 303 302 303 304 304 304 300 293 286 279 271 265 260 257 255 246 223 206 197 186 175 168 165 163 160 156 154 152 151 152 156 160 159 156 150 149
71 72 64 52 43 38 36 34 31 29 33 38 41 42 40 35 30 27 22 18 13 9 9 14 20 23 23 18 11 3 360 360 0 1 2 359 353 348 345 344 344 343 343 342 335 326 320 315 310 307 306 306 305 305 304 299 289 275 264 255 245 239 241 237 220 198 189 183 174 167 163 160 160 160 159 159 158 155 151 154 158 154 149 148 156
56 53 42 29 27 30 32 32 29 27 29 36 41 42 41 38 33 29 25 19 13 7 3 7 15 21 23 21 20 17 12 8 9 15 17 12 9 11 9 359 349 342 337 337 338 334 328 323 317 312 307 304 303 301 299 294 284 267 255 244 233 227 222 207 189 178 172 167 163 162 161 161 161 163 164 163 163 163 163 162 157 148 146 154 168
54 49 36 18 10 14 23 29 29 25 25 32 40 43 43 41 40 39 34 24 18 14 8 7 11 16 18 20 22 22 20 17 20 25 24 19 20 23 19 5 352 344 335 335 339 337 334 331 326 319 312 307 306 301 295 291 279 262 251 236 215 208 200 184 173 166 160 155 153 153 154 154 157 161 163 162 162 166 169 168 162 155 154 160 175
39 38 30 18 10 1 1 15 21 21 22 26 34 39 40 42 47 46 36 25 21 18 15 15 14 11 10 12 15 17 19 21 23 23 21 21 23 24 20 13 6 355 346 345 345 342 342 339 331 324 319 317 317 314 306 293 268 244 227 200 182 178 169 159 154 152 148 145 144 145 146 148 151 157 159 159 162 168 172 169 165 160 164 174 186
26 20 13 10 8 2 357 3 11 15 17 18 25 31 32 38 48 46 33 23 19 18 18 18 15 10 6 7 9 12 15 16 15 13 12 14 17 19 20 17 13 6 2 360 356 353 351 344 334 329 329 331 335 336 323 281 222 196 177 160 151 147 143 140 139 138 137 137 140 143 144 145 146 149 155 163 172 177 176 172 167 165 173 182 187
20 13 10 11 14 12 7 4 3 8 12 14 18 22 21 28 47 45 28 18 16 18 20 17 12 10 11 9 9 11 12 10 8 7 5 5 7 13 16 14 10 9 11 9 5 360 352 344 338 343 351 355 5 29 83 121 128 130 131 130 129 128 130 133 133 133 134 136 140 144 148 149 149 152 160 171 177 175 171 169 168 169 174 175 174
22 17 16 18 20 18 12 8 6 7 9 10 12 11 7 15 37 35 20 13 16 22 22 17 11 13 16 14 13 15 15 11 7 6 5 3 6 8 10 9 9 12 15 18 18 10 0 358 7 18 27 45 73 96 109 115 117 117 117 118 118 120 123 125 126 131 135 138 142 147 152 156 159 161 164 168 167 163 162 165 167 169 170 168 167
27 25 23 20 19 18 17 17 12 8 7 8 8 5 3 9 18 15 9 14 23 28 25 17 12 12 15 17 19 22 23 17 11 9 8 8 9 11 12 13 15 16 19 23 27 29 33 44 54 64 77 91 101 108 112 115 116 115 114 113 112 112 113 115 120 127 131 135 141 147 152 157 159 160 159 157 154 152 157 162 164 164 161 157 155
33 31 28 21 20 26 31 28 26 29 28 21 15 9 7 8 7 6 12 21 27 28 25 20 12 10 14 18 22 26 25 20 16 13 10 11 13 15 18 20 22 24 26 31 46 69 71 65 72 85 91 94 99 103 108 112 112 110 109 108 104 102 104 110 118 123 125 129 136 142 149 154 156 154 152 150 148 151 156 157 159 159 154 152 161
49 39 32 26 27 35 42 41 43 48 44 31 18 13 13 10 8 17 28 33 33 32 31 26 20 19 20 20 22 25 24 21 19 17 13 13 15 18 21 24 29 35 40 49 74 87 73 67 81 91 89 87 89 93 98 101 99 98 100 103 103 106 112 119 124 126 128 134 143 150 156 158 156 153 151 151 150 152 154 156 162 163 156 155 167
92 61 47 40 40 48 55 57 58 60 54 47 39 28 21 22 25 34 42 44 42 41 39 33 32 35 34 30 31 33 30 26 24 21 19 18 18 19 23 30 38 47 54 63 79 81 71 72 83 86 83 81 82 86 91 95 95 95 99 102 107 114 121 123 125 128 136 151 160 162 162 160 155 151 150 151 152 152 153 157 167 167 161 158 159
140 90 63 54 57 66 69 67 69 66 57 50 42 30 30 43 51 50 50 50 48 45 42 40 44 49 48 44 42 41 39 35 31 28 27 28 28 27 33 43 54 62 67 76 85 84 76 73 75 76 75 76 78 82 88 92 92 92 95 100 108 117 120 119 118 121 135 161 170 168 163 159 155 153 151 151 153 154 154 153 154 158 162 156 139
173 119 79 65 70 83 81 74 74 72 63 55 48 41 49 62 64 58 54 52 48 45 44 47 51 56 57 53 49 47 47 46 44 42 41 42 43 45 51 59 67 74 80 87 91 87 79 73 72 72 73 75 78 81 86 88 88 90 96 104 114 121 123 121 119 118 129 152 166 167 164 159 155 151 150 151 152 150 150 150 149 154 164 165 151
192 160 105 79 82 93 92 82 80 78 71 67 64 60 58 62 63 61 57 52 47 46 48 52 57 61 56 50 46 46 49 55 59 60 61 62 64 67 70 73 77 80 82 85 86 84 80 77 76 76 76 78 79 81 84 85 86 94 106 116 124 126 125 125 125 127 135 147 158 164 165 162 157 151 147 149 148 141 141 149 151 151 156 162 167
203 182 141 103 100 105 101 93 91 87 84 81 74 65 63 66 67 64 61 56 51 49 49 53 59 60 51 46 46 51 57 65 71 73 72 72 73 75 78 80 83 84 83 81 80 80 79 79 78 79 82 84 86 89 91 92 96 104 114 122 126 126 128 132 135 137 141 147 155 160 162 161 159 151 143 142 148 144 135 133 139 138 132 127 130
213 200 178 142 120 117 116 112 104 97 97 99 87 68 65 72 75 71 67 65 60 56 57 59 61 59 56 58 63 67 70 73 77 78 76 75 74 74 76 78 81 83 83 82 80 79 79 79 80 83 85 86 88 90 91 93 98 106 112 117 119 119 122 130 137 141 143 146 149 153 155 158 159 153 138 135 147 150 135 118 124 131 124 105 96
223 213 199 175 142 127 124 123 119 112 112 116 111 79 66 72 82 82 76 73 68 64 65 66 66 64 62 65 71 74 73 73 75 78 78 77 76 76 75 74 74 74 76 77 78 78 79 78 79 83 85 85 84 84 85 88 94 100 104 107 107 106 109 119 129 136 140 142 142 144 149 154 158 156 146 136 144 160 160 141 133 132 124 107 101